Content
SEND FEEDBACK

Daily
Averages
Monthly
Summary
United States of America

FLORENCE, INDIANA


Home > North America > United States > Indiana
Elevation: 480 feet     Latitude: 38 46N     Longitude: 084 58W

WEATHER
 
SELECT A DAY
Number of Records: 407,109;   Date Range: 1/1/95 - 7/22/14
 
SHARE

PRINT THIS DATA

[ ← Previous Day ]
WEATHER ALMANAC - JANUARY 23, 2013
[ Next Day → ]
[ °C ]   °F
Weather ElementAverageHighLow
Temperature19.5 °F23 °F (3:53 pm)15.1 °F (4:53 am)
Dewpoint3.5 °F10.4 °F (11:53 pm)-0.9 °F (2:53 am)
Humidity50.1 %63 % (11:53 pm)42 % (11:53 am)
Barometer30.30 in30.41 in (2:53 am)30.12 in (11:53 pm)
Wind Speed5.6 mph11.5 mph (3:53 am)
Weather ElementAverage
Visibility9.9 mi
Wind DirectionSSE (171.3 °)

Weather ElementTotal
Precipitation---
Heating Degree Days46 (Base 65)
Averaged from 23 records on January 23, 2013
WEATHER CONDITIONS BREAKOUT
WIND DIRECTION BREAKOUT
WEATHER BY HOUR - JANUARY 23, 2013
[ °C ]   °F
Local TimeTemperatureDewpointHumidityBarometerVisibilityWind DirectionWind SpeedGust SpeedPrecipitationEventsConditions
1:53 AM17.1 °F0.0 °F47 %30.40 in10.0 miWNW (290°)10.4 mphOvercast
2:53 AM16.0 °F-0.9 °F47 %30.41 in10.0 miWNW (300°)5.8 mphOvercast
3:53 AM16.0 °F-0.9 °F47 %30.41 in10.0 miWest (270°)11.5 mphOvercast
4:53 AM15.1 °F-0.9 °F49 %30.39 in10.0 miWest (270°)8.1 mphClear
5:53 AM15.1 °F-0.9 °F49 %30.39 in10.0 miWNW (290°)3.5 mphClear
6:53 AM15.1 °F3.0 °F59 %30.40 in10.0 miSW (220°)6.9 mphMostly Cloudy
7:53 AM16.0 °F3.0 °F57 %30.40 in10.0 miSSW (210°)6.9 mphOvercast
8:53 AM17.1 °F1.9 °F52 %30.40 in10.0 miSSW (200°)5.8 mphOvercast
9:53 AM18.0 °F3.0 °F52 %30.40 in10.0 miSW (220°)4.6 mphOvercast
10:53 AM19.0 °F1.9 °F47 %30.39 in10.0 miSSW (210°)10.4 mphOvercast
11:53 AM19.9 °F0.0 °F42 %30.37 in10.0 miSW (220°)6.9 mphOvercast
12:53 PM19.9 °F1.9 °F46 %30.32 in10.0 miSSW (200°)11.5 mphOvercast
1:53 PM21.0 °F6.1 °F53 %30.29 in7.0 miSW (220°)8.1 mph0.00 inSnowLight Snow
2:53 PM21.0 °F3.9 °F48 %30.26 in10.0 miSW (220°)5.8 mph0.00 inOvercast
3:53 PM23.0 °F3.9 °F44 %30.23 in10.0 miSouth (190°)6.9 mphOvercast
4:53 PM23.0 °F5.0 °F46 %30.21 in10.0 miSSE (150°)3.5 mphOvercast
5:53 PM23.0 °F5.0 °F46 %30.19 in10.0 miCalmOvercast
6:53 PM23.0 °F6.1 °F48 %30.18 in10.0 miNNE (30°)3.5 mphOvercast
7:53 PM23.0 °F6.1 °F48 %30.17 in10.0 miCalmOvercast
8:53 PM21.9 °F7.0 °F53 %30.16 in10.0 miNE (40°)3.5 mphOvercast
9:53 PM23.0 °F8.1 °F53 %30.17 in10.0 miCalmOvercast
10:53 PM21.0 °F8.1 °F57 %30.15 in10.0 miCalmMostly Cloudy
11:53 PM21.2 °F10.4 °F63 %30.12 in10.0 miSouth (190°)4.6 mphOvercast
Hourly data recorded from KLUK, located miles away from Florence, Indiana







STORIES FROM OUR PARTNERS